files.iclinks.com - /datasheets/modulus/


[To Parent Directory]

2/15/2020 6:45 AM 219875 Messenger 4G LTE Cellular Routers_A7.pdf
2/15/2020 6:45 AM 148611 Messenger Telephone Dialup Modem with Voice_A7.pdf
2/15/2020 6:45 AM 797963 Modulus 8x-7000 Advanced Comm - No IO_A5.pdf
2/15/2020 6:45 AM 1227244 Modulus 8x-7002_8x-7003_8x-7012 Advanced Comm - 8AI_A5b.pdf
2/15/2020 6:45 AM 1238973 Modulus 8x-7004_8x-7005_8x-7014 Advanced Comm - 8UI_A5b.pdf
2/15/2020 6:45 AM 492979 Modulus 8x-7092_8x-7094_8x-7096_8x-7098 Advanced Comm - Everest_A6.pdf
2/15/2020 6:45 AM 308071 Modulus Cell Comm 1120 with Audio Out_A7.pdf
2/15/2020 6:45 AM 1432307 Modulus Cell Comm 1120 with Extended IO_A7-compressed.pdf
2/15/2020 6:45 AM 308284 Modulus Cell Comm 1120 with Mini IO_A7.pdf
2/15/2020 6:45 AM 308591 Modulus Cell Comm 1120 with UPS_A7.pdf
2/15/2020 6:45 AM 324221 Modulus Cell Comm 1120_A7.pdf
2/15/2020 6:45 AM 300177 Modulus Cell Comm 2110 with Audio Out_A7.pdf
2/15/2020 6:45 AM 297464 Modulus Cell Comm 2110 with Mini IO_7.pdf
2/15/2020 6:45 AM 297732 Modulus Cell Comm 2110 with UPS_A7.pdf
2/15/2020 6:45 AM 316089 Modulus Cell Comm 2110_A7.pdf
2/15/2020 6:45 AM 426474 Modulus COMBO 8AI_A7.pdf
2/15/2020 6:45 AM 432013 Modulus COMBO 8UI_A7.pdf
2/15/2020 6:45 AM 232821 Modulus DI24_A7.pdf
2/15/2020 6:45 AM 289026 Modulus DIDO 1212_A7.pdf
2/15/2020 6:45 AM 244503 Modulus DIDO 1608_A7.pdf
2/15/2020 6:45 AM 243754 Modulus DIDO 2004_A7.pdf
2/15/2020 6:45 AM 1348835 Modulus Family - Installation and Operation_A4.pdf
2/15/2020 6:45 AM 130438 Modulus FWP4_A5.pdf
2/15/2020 6:45 AM 361353 Modulus Mesh Comm 1120 with Audio Out_A7.pdf
2/15/2020 6:45 AM 1467410 Modulus Mesh Comm 1120 with Extended IO_A7-compressed.pdf
2/15/2020 6:45 AM 360478 Modulus Mesh Comm 1120 with Mini IO_A7.pdf
2/15/2020 6:45 AM 362064 Modulus Mesh Comm 1120 with UPS_A7.pdf
2/15/2020 6:45 AM 358066 Modulus Mesh Comm 1120_A7.pdf
2/15/2020 6:45 AM 354628 Modulus Mesh Comm 2110 with Audio Out_A7.pdf
2/15/2020 6:45 AM 351216 Modulus Mesh Comm 2110 with Mini IO_A7.pdf
2/15/2020 6:45 AM 351973 Modulus Mesh Comm 2110 with UPS_A7.pdf
2/15/2020 6:45 AM 349766 Modulus Mesh Comm 2110_A7.pdf
2/15/2020 6:45 AM 2363031 Modulus on diamond plate HR 300dpi.jpg
2/15/2020 6:45 AM 1036704 Modulus Power Supply_A7-compressed.pdf
2/15/2020 6:45 AM 130069 Modulus Selection Guide 1-1-2019.pdf
2/15/2020 6:45 AM 287573 Modulus Serial Comm 1120 with Audio Out_A7.pdf
2/15/2020 6:45 AM 1398648 Modulus Serial Comm 1120 with Extended IO_A7-compressed.pdf
2/15/2020 6:45 AM 285686 Modulus Serial Comm 1120 with Mini IO_A7.pdf
2/15/2020 6:45 AM 287599 Modulus Serial Comm 1120 with UPS_A7.pdf
2/15/2020 6:45 AM 267795 Modulus Serial Comm 1120_A7.pdf
2/15/2020 6:45 AM 278279 Modulus Serial Comm 2110 with Audio Out_A7.pdf
2/15/2020 6:45 AM 275004 Modulus Serial Comm 2110 with Mini IO_A7.pdf
2/15/2020 6:45 AM 277552 Modulus Serial Comm 2110 with UPS_A7.pdf
2/15/2020 6:45 AM 257319 Modulus Serial Comm 2110_A7.pdf
2/15/2020 6:45 AM 363419 Modulus Spread Spectrum Comm 1120 with Audio Out_A7.pdf
2/15/2020 6:45 AM 966926 Modulus Spread Spectrum Comm 1120 with Extended IO_A7-compressed.pdf
2/15/2020 6:45 AM 362710 Modulus Spread Spectrum Comm 1120 with Mini IO_A7.pdf
2/15/2020 6:45 AM 362869 Modulus Spread Spectrum Comm 1120 with UPS_A7.pdf
2/15/2020 6:45 AM 362510 Modulus Spread Spectrum Comm 1120_A7.pdf
2/15/2020 6:45 AM 355815 Modulus Spread Spectrum Comm 2110 with Audio Out_A7.pdf
2/15/2020 6:45 AM 352562 Modulus Spread Spectrum Comm 2110 with Mini IO_A7.pdf
2/15/2020 6:45 AM 352707 Modulus Spread Spectrum Comm 2110 with UPS_A7.pdf
2/15/2020 6:45 AM 352781 Modulus Spread Spectrum Comm 2110_A7.pdf
2/15/2020 6:45 AM 8529831 Modulus_Brochure_Letter_Size.pdf